This demonstration page uses our WeatherBlox Daily Observations layout. Learn more.

Left ArrowRight Arrow

39.01783, -85.05884

Hourly Observations for August 27, 2021

Temp ( °F °C ) Dew Point ( °F °C ) Humidity (%) Winds ( mph kmh ) Pressure ( in mb ) Visibility ( mi km ) Precip ( " mm )
12:52 am 00:52 Mostly Cloudy 73 22.8 68 20 84 84 E 6 9 30.09 1019 10 16 0.00 0.00
1:52 am 01:52 Clear 72 22.2 68 20 87 87 SE 3 6 30.10 1019 10 16 0.00 0.00
2:52 am 02:52 Mostly Cloudy 73 22.8 67 19.4 81 81 E 6 9 30.09 1019 10 16 0.00 0.00
3:52 am 03:52 Mostly Cloudy 73 22.8 66 18.9 79 79 ESE 7 11 30.08 1019 10 16 0.00 0.00
4:52 am 04:52 Partly Cloudy 71 21.7 66 18.9 84 84 S 3 6 30.08 1019 10 16 0.00 0.00
5:52 am 05:52 Mostly Clear 71 21.7 65 18.3 81 81 ESE 6 9 30.07 1018 10 16 0.00 0.00
6:52 am 06:52 Partly Cloudy 71 21.7 65 18.3 81 81 SSE 3 6 30.08 1019 10 16 0.00 0.00
7:52 am 07:52 Mostly Cloudy 73 22.8 66 18.9 79 79 ESE 6 9 30.09 1019 10 16 0.00 0.00
8:52 am 08:52 Mostly Cloudy 77 25 67 19.4 71 71 SSE 9 15 30.10 1019 10 16 0.00 0.00
9:52 am 09:52 Partly Cloudy 80 26.7 70 21.1 71 71 SSE 6 9 30.10 1019 10 16 0.00 0.00
10:52 am 10:52 Partly Cloudy 84 28.9 71 21.7 65 65 VRB 5 7 30.11 1020 10 16 0.00 0.00
11:52 am 11:52 Mostly Sunny 86 30 72 22.2 63 63 VRB 6 9 30.11 1020 10 16 0.00 0.00
12:52 pm 12:52 Partly Cloudy 88 31.1 72 22.2 59 59 VRB 5 7 30.10 1019 10 16 0.00 0.00
1:52 pm 13:52 Mostly Cloudy 89 31.7 69 20.6 52 52 Calm 30.08 1019 10 16 0.00 0.00
2:52 pm 14:52 Mostly Cloudy 90 32.2 70 21.1 52 52 ESE 6 9 30.05 1018 10 16 0.00 0.00
3:52 pm 15:52 Mostly Cloudy 88 31.1 70 21.1 55 55 Calm 30.03 1017 10 16 0.00 0.00
4:17 pm 16:17 Cloudy with Heavy Rain 79 26.1 71 21.7 77 77 N 15 24 30.03 1017 2 3 0.00 0.00
4:22 pm 16:22 Cloudy with Heavy Rain 79 26.1 69 20.6 72 72 ENE 32 52 30.04 1017 1 2 0.07 1.78
4:27 pm 16:27 Cloudy with Strong Thunderstorms 78 25.6 68 20 71 71 ENE 32 52 30.04 1017 2 2 0.11 2.79
4:33 pm 16:33 Windy with Storms Likely 79 26.1 67 19.4 67 67 E 20 31 30.03 1017 3 5 0.11 2.79
4:42 pm 16:42 Mostly Cloudy with Thunderstorms 79 26.1 69 20.6 72 72 E 13 20 30.03 1017 10 16 0.12 3.05
4:52 pm 16:52 Mostly Cloudy with Thunderstorms 80 26.7 69 20.6 69 69 ESE 14 22 30.05 1018 10 16 0.12 3.05
5:52 pm 17:52 Mostly Cloudy with Thunderstorms 75 23.9 68 20 79 79 SSE 26 43 30.09 1019 10 16 0.00 0.00
5:59 pm 17:59 Mostly Cloudy with Thunderstorms 74 23.3 68 20 82 82 SSE 20 31 30.10 1019 10 16 0.00 0.00
6:13 pm 18:13 Cloudy with Strong Thunderstorms 73 22.8 69 20.6 87 87 S 13 20 30.12 1020 3 4 0.01 0.25
6:21 pm 18:21 Cloudy with Strong Thunderstorms 73 22.8 69 20.6 87 87 S 10 17 30.12 1020 1 2 0.09 2.29
6:32 pm 18:32 Mostly Cloudy with Thunderstorms 72 22.2 69 20.6 91 91 S 10 17 30.11 1020 3 5 0.17 4.32
6:52 pm 18:52 Cloudy with Thunderstorms 72 22.2 68 20 87 87 SSW 9 15 30.09 1019 7 11 0.18 4.57
7:52 pm 19:52 Mostly Cloudy with Thunderstorms 73 22.8 69 20.6 87 87 Calm 30.10 1019 3 5 0.04 1.02
8:24 pm 20:24 Mostly Cloudy with Light Rain 73 22.8 68 20 84 84 SE 5 7 30.10 1019 10 16 0.02 0.51
8:52 pm 20:52 Mostly Cloudy 73 22.8 69 20.6 87 87 SSE 5 7 30.11 1020 10 16 0.02 0.51
9:52 pm 21:52 Cloudy 73 22.8 69 20.6 87 87 S 8 13 30.11 1020 10 16 0.00 0.00
10:52 pm 22:52 Cloudy 73 22.8 69 20.6 87 87 SSE 5 7 30.12 1020 10 16 0.00 0.00
11:52 pm 23:52 Cloudy 72 22.2 68 20 87 87 S 9 15 30.11 1020 10 16 0.00 0.00

Powered by AerisWeather